Location: Taylor Dark Sky Site
(39.1017°N, 87.9564°W)
Time: 07:30:24
(UTC-05:00)

Amateur Radio Satellites - All Passes

Search period start: 05 August 2015 07:00
Search period end: 06 August 2015 07:00
Location: Taylor Dark Sky Site, 39.1017°N, 87.9564°W

Satellite Date Start Highest point End Downlink Frequencies (MHz)
Time Altitude Azimuth
CUBESAT XI-V 05 Aug 07:21:34 07:25:02 20° 268° (W) 07:28:22 437.345
PCSat 05 Aug 07:32:48 07:37:17 28° 109° (ESE) 07:41:54 145.827
RS-15 05 Aug 07:35:13 07:46:20 46° 250° (WSW) 07:57:32 29.354- 29.394
GOMX 1 05 Aug 07:45:26 07:47:32 13° 90° (E) 07:49:58 467.674
GONETS M04 05 Aug 07:47:57 07:54:53 25° 294° (WNW) 08:01:31
CUTE-I 05 Aug 07:53:48 07:58:53 46° 289° (WNW) 08:03:53 437.470
BRITE-PL 05 Aug 07:56:11 08:00:07 28° 96° (E) 08:04:22 437.365/2234.400
BEESAT 2 05 Aug 08:01:07 08:05:11 73° 241° (WSW) 08:09:10 435.950
STRAND 1 05 Aug 08:01:34 08:06:00 28° 265° (W) 08:10:22 437.568
SO-50 05 Aug 08:01:56 08:06:24 44° 116° (ESE) 08:11:03 436.795
PRISM 05 Aug 08:05:18 08:08:44 23° 265° (W) 08:12:04 437.425
Cosmos 2499 05 Aug 08:14:27 08:21:50 60° 282° (WNW) 08:29:50 435.465 / 435.565
AIST 2 05 Aug 08:26:49 08:30:50 44° 54° (NE) 08:34:48 435.215
BEESAT 3 05 Aug 08:34:57 08:38:11 23° 247° (WSW) 08:41:18 437.485
Cubesat XI-IV 05 Aug 08:40:25 08:44:04 18° 296° (WNW) 08:47:31 437.490
M-CUBED/EXP-1 PRIME 05 Aug 08:42:53 08:46:17 25° 63° (ENE) 08:49:59 437.505
DOVE 4 05 Aug 08:47:40 08:52:05 37° 97° (E) 08:56:44 437.250
SEEDS 05 Aug 08:53:51 08:57:15 24° 94° (E) 09:00:43 437.485
CUTE 1.7 + AOD 2 05 Aug 09:03:46 09:07:48 39° 97° (E) 09:11:48 437.475
AUBIESAT-1 05 Aug 09:07:09 09:11:01 38° 66° (ENE) 09:15:12 437.475
AAUSAT CUBESAT 2 05 Aug 09:08:34 09:11:52 23° 94° (E) 09:15:13 437.432
CANX-2 05 Aug 09:12:45 09:16:59 56° 99° (E) 09:21:12 2200.000
PCSat 05 Aug 09:15:30 09:20:33 39° 306° (NW) 09:25:38 145.827
HO-68 05 Aug 09:18:15 09:25:21 60° 102° (ESE) 09:32:26 435.675
GOMX 1 05 Aug 09:21:26 09:26:03 62° 284° (WNW) 09:30:58 467.674
YUBILEINY 05 Aug 09:24:21 09:27:57 13° 57° (ENE) 09:32:12 435.215
Oscar 11 05 Aug 09:26:24 09:29:03 16° 91° (E) 09:31:52 145.826/435.025
BRITE-PL 05 Aug 09:34:46 09:38:37 27° 289° (WNW) 09:42:36 437.365/2234.400
UWE-3 05 Aug 09:36:01 09:39:13 19° 92° (E) 09:42:35 435.000/436.395/437.385
O/OREOS (USA 219) 05 Aug 09:40:13 09:43:07 17° 55° (NE) 09:46:10 437.305
UNISAT 6 05 Aug 09:41:30 09:44:41 21° 68° (ENE) 09:48:04 437.425
SO-50 05 Aug 09:43:11 09:47:09 24° 314° (NW) 09:51:08 436.795
DELFI C3 05 Aug 09:57:14 10:00:25 23° 94° (E) 10:03:40 145.870
CINEMA 3 05 Aug 10:00:21 10:05:10 87° 287° (WNW) 10:10:09 145.822/145.860
CUBEBUG 2 05 Aug 10:00:24 10:04:53 44° 98° (E) 10:09:27 437.445
COMPASS 1 05 Aug 10:06:06 10:10:16 62° 285° (WNW) 10:14:24 437.405
AIST 2 05 Aug 10:06:28 10:09:05 16° 249° (WSW) 10:11:30 435.215
M-CUBED/EXP-1 PRIME 05 Aug 10:17:16 10:20:56 30° 261° (W) 10:24:50 437.505
POLYITAN 1 05 Aug 10:19:00 10:21:56 19° 68° (ENE) 10:25:00 437.675
TIGRISAT 05 Aug 10:21:37 10:25:51 53° 74° (ENE) 10:30:15 435.000
ANTELSAT 05 Aug 10:25:24 10:29:43 61° 75° (ENE) 10:34:10 437.575/2403.000
DOVE 4 05 Aug 10:25:54 10:29:41 23° 290° (WNW) 10:33:30 437.250
SEEDS 05 Aug 10:29:24 10:33:01 27° 290° (WNW) 10:36:33 437.485
POPSAT HIP 1 05 Aug 10:33:29 10:36:58 27° 70° (ENE) 10:40:33 437.405
ZACube-1 05 Aug 10:36:51 10:41:24 65° 101° (E) 10:45:59 437.345
CUTE 1.7 + AOD 2 05 Aug 10:40:31 10:43:26 17° 292° (WNW) 10:46:12 437.475
QB50P2 05 Aug 10:42:03 10:45:51 34° 72° (ENE) 10:49:43 145.880/145.840
AUBIESAT-1 05 Aug 10:42:53 10:45:56 19° 265° (W) 10:49:00 437.475
AAUSAT CUBESAT 2 05 Aug 10:43:52 10:47:28 27° 289° (WNW) 10:50:58 437.432
HUMSAT D 05 Aug 10:45:21 10:49:11 31° 96° (E) 10:53:03 437.325/437.525
CANX-2 05 Aug 10:50:29 10:52:29 13° 294° (WNW) 10:54:16 2200.000
50 SAT 05 Aug 10:55:01 10:57:30 16° 92° (E) 11:00:06 437.505
FUNcube-1 05 Aug 10:56:22 11:00:57 80° 283° (WNW) 11:05:32 145.935
DUCHIFAT 1 05 Aug 11:00:50 11:04:53 53° 74° (ENE) 11:08:59 145.980
Oscar 11 05 Aug 11:01:21 11:05:28 41° 287° (WNW) 11:09:32 145.826/435.025
UKube-1 05 Aug 11:03:21 11:07:02 27° 96° (E) 11:10:47 .
ESTCUBE 1 05 Aug 11:06:25 11:08:39 14° 90° (E) 11:11:06 437.505/2401.250
HO-68 05 Aug 11:06:50 11:12:40 27° 298° (WNW) 11:18:18 435.675
NANOSAT C BR1 05 Aug 11:06:59 11:11:07 65° 75° (ENE) 11:15:17 145.865
QB50P1 05 Aug 11:07:42 11:11:52 68° 76° (ENE) 11:16:04 145.935-145.965
UWE-3 05 Aug 11:11:33 11:15:56 41° 287° (WNW) 11:20:18 435.000/436.395/437.385
UNISAT 6 05 Aug 11:17:14 11:21:15 35° 264° (W) 11:25:21 437.425
YUBILEINY 05 Aug 11:17:58 11:26:49 72° 80° (E) 11:35:38 435.215
O/OREOS (USA 219) 05 Aug 11:18:27 11:22:54 50° 253° (WSW) 11:27:20 437.305
DELFI C3 05 Aug 11:32:04 11:35:28 25° 290° (WNW) 11:38:46 145.870
CUBEBUG 1 05 Aug 11:33:08 11:36:29 22° 94° (E) 11:39:57 437.445
AISAT 05 Aug 11:33:20 11:37:31 41° 98° (E) 11:41:42 437.250
CUBEBUG 2 05 Aug 11:37:55 11:41:17 19° 292° (WNW) 11:44:32 437.445
DX 1 05 Aug 11:38:23 11:42:45 79° 102° (ESE) 11:47:06 434.975-435.025
BUGSAT 1 05 Aug 11:47:16 11:51:16 67° 259° (WSW) 11:55:17 437.445
Cosmos 2491 05 Aug 11:51:41 12:00:15 62° 92° (E) 12:08:51 435.465 / 435.565
SPROUT 05 Aug 11:53:24 11:53:34 10° 88° (E) 11:54:03 437.525
POLYITAN 1 05 Aug 11:53:48 11:57:38 33° 263° (W) 12:01:27 437.675
AIST 1 05 Aug 11:58:26 12:02:46 72° 278° (W) 12:07:05
TIGRISAT 05 Aug 12:00:55 12:03:03 13° 271° (W) 12:04:57 435.000
ANTELSAT 05 Aug 12:05:34 12:07:02 11° 272° (W) 12:08:13 437.575/2403.000
POPSAT HIP 1 05 Aug 12:09:25 12:12:50 23° 266° (W) 12:16:11 437.405
VELOX 1 05 Aug 12:10:43 12:15:08 78° 284° (WNW) 12:19:33 145.980
ZACube-1 05 Aug 12:15:08 12:17:16 13° 295° (WNW) 12:19:11 437.345
QB50P2 05 Aug 12:18:55 12:21:53 18° 268° (W) 12:24:43 145.880/145.840
HUMSAT D 05 Aug 12:21:22 12:24:45 22° 291° (WNW) 12:28:03 437.325/437.525
Oscar 19 05 Aug 12:21:48 12:25:14 19° 65° (ENE) 12:28:51 437.125/150
50 SAT 05 Aug 12:28:34 12:32:12 33° 288° (WNW) 12:35:46 437.505
DUCHIFAT 1 05 Aug 12:39:32 12:41:06 11° 271° (W) 12:42:24 145.980
UKube-1 05 Aug 12:39:33 12:43:05 24° 291° (WNW) 12:46:31 .
ESTCUBE 1 05 Aug 12:41:31 12:45:53 50° 287° (WNW) 12:50:12 437.505/2401.250
Cosmos 2504 05 Aug 12:53:18 13:01:03 39° 73° (ENE) 13:09:01 435.465 / 435.565
CUBEBUG 1 05 Aug 13:09:05 13:12:53 30° 289° (WNW) 13:16:37 437.445
AISAT 05 Aug 13:10:47 13:13:49 18° 293° (WNW) 13:16:42 437.250
YUBILEINY 05 Aug 13:16:18 13:22:53 23° 278° (W) 13:29:05 435.215
TISAT 1 05 Aug 13:18:28 13:22:40 61° 101° (E) 13:26:51 437.305
SWISSCUBE 05 Aug 13:20:27 13:21:11 10° 88° (E) 13:22:14 437.505
JAS-2 05 Aug 13:21:44 13:23:31 11° 53° (NE) 13:25:48 435.910
SPROUT 05 Aug 13:25:53 13:30:09 64° 285° (WNW) 13:34:25 437.525
CUSAT 1 05 Aug 13:37:43 13:40:39 16° 73° (ENE) 13:44:17 437.405
ITUPSAT 1 05 Aug 13:41:53 13:44:53 17° 91° (E) 13:48:03 437.325
Cosmos 2491 05 Aug 13:50:30 13:57:49 28° 293° (WNW) 14:04:52 435.465 / 435.565
ITAMSAT 1 05 Aug 13:52:03 13:56:44 36° 70° (ENE) 14:01:29 435.822/435.867
DANDE 05 Aug 13:53:07 13:54:53 12° 73° (ENE) 13:57:09 436.750
Gurwin Techsat 1B 05 Aug 13:57:48 14:02:50 46° 71° (ENE) 14:07:55 435.225
Oscar 19 05 Aug 13:59:16 14:04:14 51° 260° (W) 14:09:14 437.125/150
AO-7 05 Aug 13:59:44 14:04:43 18° 53° (NE) 14:10:07 29.400- 29.500
BEESAT 05 Aug 14:33:34 14:38:18 61° 101° (E) 14:43:01 436.000
Cosmos 2504 05 Aug 14:45:22 14:53:24 46° 271° (W) 15:01:22 435.465 / 435.565
SWISSCUBE 05 Aug 14:54:53 14:59:39 73° 285° (WNW) 15:04:24 437.505
TISAT 1 05 Aug 14:56:25 14:57:58 12° 295° (WNW) 14:59:18 437.305
JAS-2 05 Aug 15:00:59 15:07:10 65° 72° (ENE) 15:14:14 435.910
STARS 05 Aug 15:06:21 15:08:01 12° 89° (E) 15:09:56 437.465
VERMONT LUNAR 05 Aug 15:15:29 15:17:05 13° 147° (SSE) 15:18:47 437.305
ITUPSAT 1 05 Aug 15:18:29 15:23:04 47° 288° (WNW) 15:27:36 437.325
CUSAT 1 05 Aug 15:18:30 15:23:13 58° 262° (W) 15:29:26 437.405
ITAMSAT 1 05 Aug 15:31:56 15:36:19 26° 266° (W) 15:40:37 435.822/435.867
DANDE 05 Aug 15:33:43 15:38:00 61° 262° (W) 15:43:46 436.750
Gurwin Techsat 1B 05 Aug 15:39:03 15:43:05 21° 268° (W) 15:46:57 435.225
KKS-1 05 Aug 15:43:25 15:47:49 55° 100° (E) 15:52:14 437.445
HORYU 2 05 Aug 15:47:18 15:51:43 65° 75° (ENE) 15:56:11 437.375
AO-7 05 Aug 15:48:04 15:56:26 81° 71° (ENE) 16:04:50 29.400- 29.500
GONETS M04 05 Aug 16:00:37 16:08:06 32° 69° (ENE) 16:15:47
BEESAT 05 Aug 16:13:04 16:15:41 14° 296° (WNW) 16:18:05 436.000
PCSat 05 Aug 16:21:34 16:25:31 21° 46° (NE) 16:29:35 145.827
SO-50 05 Aug 16:34:33 16:38:58 32° 49° (NE) 16:43:20 436.795
STARS 05 Aug 16:40:32 16:44:53 57° 286° (WNW) 16:49:13 437.465
Cubesat XI-IV 05 Aug 16:44:50 16:45:56 11° 60° (ENE) 16:47:22 437.490
JAS-2 05 Aug 16:48:24 16:53:03 20° 274° (W) 16:57:47 435.910
VERMONT LUNAR 05 Aug 16:50:17 16:53:24 59° 161° (SSE) 16:56:32 437.305
PHONESAT 2.4 05 Aug 16:50:52 16:51:42 11° 144° (SE) 16:52:40 2401.200-2431.200
MOZHAYETS 4 05 Aug 17:09:45 17:14:19 59° 100° (E) 17:18:51
KKS-1 05 Aug 17:21:39 17:24:02 14° 295° (WNW) 17:26:14 437.445
HORYU 2 05 Aug 17:27:40 17:28:53 11° 272° (W) 17:29:47 437.375
CUTE-I 05 Aug 17:35:10 17:39:50 32° 69° (ENE) 17:44:34 437.470
AO-7 05 Aug 17:44:16 17:50:14 20° 270° (W) 17:55:46 29.400- 29.500
GONETS M04 05 Aug 17:56:57 18:05:23 54° 269° (W) 18:13:46
PCSat 05 Aug 18:04:04 18:09:26 62° 246° (WSW) 18:14:45 145.827
Cosmos 2499 05 Aug 18:06:05 18:14:34 50° 75° (ENE) 18:23:06 435.465 / 435.565
SO-50 05 Aug 18:15:06 18:19:30 32° 246° (WSW) 18:23:44 436.795
Cubesat XI-IV 05 Aug 18:19:56 18:25:18 83° 76° (ENE) 18:30:43 437.490
PHONESAT 2.4 05 Aug 18:25:48 18:29:10 47° 158° (SSE) 18:32:34 2401.200-2431.200
VERMONT LUNAR 05 Aug 18:26:57 18:30:07 65° 358° (N) 18:33:17 437.305
STRAND 1 05 Aug 18:36:15 18:37:30 11° 87° (E) 18:39:08 437.568
MOZHAYETS 4 05 Aug 18:48:39 18:51:05 14° 295° (WNW) 18:53:18
GOMX 1 05 Aug 18:54:57 18:55:34 10° 65° (ENE) 18:56:26 467.674
BRITE-PL 05 Aug 19:06:58 19:10:30 26° 71° (ENE) 19:14:00 437.365/2234.400
ISS 05 Aug 19:11:38 19:14:48 54° 139° (SE) 19:18:00 145.825
CUTE-I 05 Aug 19:15:09 19:19:54 31° 264° (W) 19:24:35 437.470
CUBESAT XI-V 05 Aug 19:17:48 19:22:24 72° 284° (WNW) 19:26:58 437.345
SEEDS 05 Aug 19:45:42 19:48:09 16° 67° (ENE) 19:50:47 437.485
HO-68 05 Aug 19:45:43 19:52:11 40° 66° (ENE) 19:58:47 435.675
RS-15 05 Aug 19:46:11 19:55:22 35° 107° (ESE) 20:05:05 29.354- 29.394
PRISM 05 Aug 19:47:43 19:51:42 48° 100° (E) 19:55:40 437.425
DOVE 4 05 Aug 19:53:10 19:56:41 28° 71° (ENE) 20:00:18 437.250
CUTE 1.7 + AOD 2 05 Aug 19:55:49 19:59:16 25° 70° (ENE) 20:02:49 437.475
AAUSAT CUBESAT 2 05 Aug 19:59:16 20:01:29 14° 67° (ENE) 20:03:52 437.432
Cosmos 2499 05 Aug 19:59:39 20:07:32 36° 273° (W) 20:15:12 435.465 / 435.565
PHONESAT 2.4 05 Aug 20:03:35 20:07:06 72° 354° (N) 20:10:37 2401.200-2431.200
VERMONT LUNAR 05 Aug 20:03:43 20:06:54 84° 195° (SSW) 20:10:05 437.305
Cubesat XI-IV 05 Aug 20:04:31 20:06:11 11° 273° (W) 20:07:28 437.490
CANX-2 05 Aug 20:04:34 20:08:25 34° 72° (ENE) 20:12:21 2200.000
STRAND 1 05 Aug 20:12:18 20:17:25 77° 284° (WNW) 20:22:29 437.568
Oscar 11 05 Aug 20:21:32 20:23:03 12° 65° (ENE) 20:24:47 145.826/435.025
GOMX 1 05 Aug 20:29:09 20:33:17 61° 259° (W) 20:37:24 467.674
UWE-3 05 Aug 20:33:39 20:35:26 13° 65° (ENE) 20:37:26 435.000/436.395/437.385
DELFI C3 05 Aug 20:44:35 20:46:25 13° 67° (ENE) 20:48:27 145.870
BRITE-PL 05 Aug 20:45:37 20:49:05 23° 266° (W) 20:52:21 437.365/2234.400
ISS 05 Aug 20:48:52 20:51:26 21° 335° (NNW) 20:54:00 145.825
COMPASS 1 05 Aug 20:55:38 20:59:50 75° 77° (ENE) 21:04:05 437.405
CUBEBUG 2 05 Aug 20:58:02 21:01:40 29° 71° (ENE) 21:05:29 437.445
CINEMA 3 05 Aug 21:01:19 21:05:27 74° 76° (ENE) 21:09:44 145.822/145.860
SEEDS 05 Aug 21:19:32 21:23:37 44° 262° (W) 21:27:42 437.485
PRISM 05 Aug 21:24:43 21:26:45 13° 294° (WNW) 21:28:37 437.425
DOVE 4 05 Aug 21:31:22 21:34:32 20° 267° (W) 21:37:38 437.250
CUTE 1.7 + AOD 2 05 Aug 21:31:27 21:35:07 26° 266° (W) 21:38:43 437.475
ZACube-1 05 Aug 21:31:48 21:35:46 42° 73° (ENE) 21:39:53 437.345
AAUSAT CUBESAT 2 05 Aug 21:32:40 21:36:43 46° 261° (W) 21:40:48 437.432
HO-68 05 Aug 21:33:22 21:39:57 38° 263° (W) 21:46:29 435.675
HUMSAT D 05 Aug 21:36:40 21:39:35 19° 68° (ENE) 21:42:39 437.325/437.525
VERMONT LUNAR 05 Aug 21:40:48 21:43:21 22° 209° (SSW) 21:45:51 437.305
CANX-2 05 Aug 21:41:21 21:44:28 19° 268° (W) 21:47:28 2200.000
PHONESAT 2.4 05 Aug 21:41:39 21:45:10 84° 8° (N) 21:48:42 2401.200-2431.200
FUNcube-1 05 Aug 21:50:50 21:55:01 68° 76° (ENE) 21:59:20 145.935
BEESAT 2 05 Aug 21:53:46 21:57:09 26° 114° (ESE) 22:00:39 435.950
Oscar 11 05 Aug 21:54:27 21:58:46 62° 260° (W) 22:03:05 145.826/435.025
RS-15 05 Aug 21:56:18 22:07:09 64° 308° (NW) 22:18:23 29.354- 29.394
UKube-1 05 Aug 21:57:30 22:00:44 21° 68° (ENE) 22:04:04 .
M-CUBED/EXP-1 PRIME 05 Aug 21:59:13 22:03:04 25° 98° (E) 22:06:50 437.505
Cosmos 2491 05 Aug 22:04:00 22:11:09 29° 68° (ENE) 22:18:32 435.465 / 435.565
ESTCUBE 1 05 Aug 22:05:56 22:07:44 13° 64° (ENE) 22:09:46 437.505/2401.250
AIST 1 05 Aug 22:07:16 22:10:40 23° 74° (ENE) 22:14:08
UWE-3 05 Aug 22:07:22 22:11:30 55° 260° (W) 22:15:47 435.000/436.395/437.385
TIGRISAT 05 Aug 22:16:03 22:18:10 13° 89° (E) 22:20:31 435.000
DELFI C3 05 Aug 22:17:10 22:21:06 48° 261° (W) 22:25:05 145.870
ANTELSAT 05 Aug 22:19:43 22:22:22 15° 90° (E) 22:25:13 437.575/2403.000
AUBIESAT-1 05 Aug 22:23:05 22:27:26 37° 101° (ESE) 22:31:35 437.475
BEESAT 3 05 Aug 22:25:10 22:29:13 80° 120° (ESE) 22:33:20 437.485
AIST 2 05 Aug 22:25:51 22:27:33 12° 109° (ESE) 22:29:27 435.215
YUBILEINY 05 Aug 22:25:54 22:29:58 15° 79° (ENE) 22:34:41 435.215
CUBEBUG 1 05 Aug 22:28:54 22:31:41 17° 67° (ENE) 22:34:36 437.445
AISAT 05 Aug 22:30:07 22:34:00 32° 71° (ENE) 22:37:56 437.250
DX 1 05 Aug 22:32:41 22:36:56 58° 74° (ENE) 22:41:13 434.975-435.025
CUBEBUG 2 05 Aug 22:35:08 22:38:26 21° 267° (W) 22:41:42 437.445
NANOSAT C BR1 05 Aug 22:55:06 22:56:26 11° 89° (E) 22:58:01 145.865
QB50P1 05 Aug 22:55:53 22:57:27 12° 89° (E) 22:59:17 145.935-145.965
VELOX 1 05 Aug 23:06:54 23:11:17 81° 76° (ENE) 23:15:42 145.980
UNISAT 6 05 Aug 23:09:37 23:14:14 52° 99° (E) 23:18:49 437.425
ZACube-1 05 Aug 23:09:49 23:12:25 15° 270° (W) 23:14:51 437.345
50 SAT 05 Aug 23:10:26 23:14:20 74° 258° (WSW) 23:18:17 437.505
HUMSAT D 05 Aug 23:11:19 23:15:06 33° 264° (W) 23:18:56 437.325/437.525
PHONESAT 2.4 05 Aug 23:19:48 23:22:59 32° 206° (SSW) 23:26:07 2401.200-2431.200
BUGSAT 1 05 Aug 23:31:15 23:34:04 18° 93° (E) 23:37:00 437.445
BEESAT 2 05 Aug 23:31:34 23:35:09 28° 310° (NW) 23:38:42 435.950
UKube-1 05 Aug 23:32:49 23:36:42 31° 263° (W) 23:40:33 .
M-CUBED/EXP-1 PRIME 05 Aug 23:33:32 23:37:53 34° 295° (WNW) 23:42:00 437.505
ESTCUBE 1 05 Aug 23:39:37 23:44:07 64° 259° (W) 23:48:38 437.505/2401.250
POLYITAN 1 05 Aug 23:39:49 23:43:52 40° 98° (E) 23:47:56 437.675
AIST 1 05 Aug 23:44:46 23:48:17 25° 270° (W) 23:51:43
TIGRISAT 05 Aug 23:50:42 23:55:21 59° 285° (WNW) 23:59:58 435.000
O/OREOS (USA 219) 05 Aug 23:51:26 23:54:41 21° 102° (ESE) 23:58:06 437.305
POPSAT HIP 1 05 Aug 23:54:32 23:58:46 59° 101° (E) 00:02:59 437.405
ANTELSAT 05 Aug 23:54:53 23:59:29 52° 287° (WNW) 00:04:03 437.575/2403.000
AUBIESAT-1 05 Aug 23:58:08 00:01:53 23° 298° (WNW) 00:05:25 437.475
Cosmos 2491 06 Aug 00:00:07 00:08:38 60° 268° (W) 00:17:06 435.465 / 435.565
AIST 2 06 Aug 00:01:29 00:05:41 59° 304° (WNW) 00:09:54 435.215
QB50P2 06 Aug 00:03:35 00:07:52 79° 101° (ESE) 00:12:10 145.880/145.840
CUBEBUG 1 06 Aug 00:03:39 00:07:46 40° 262° (W) 00:11:51 437.445
ISS 06 Aug 00:04:53 00:06:26 13° 15° (NNE) 00:08:02 145.825
BEESAT 3 06 Aug 00:06:02 00:07:45 12° 319° (NW) 00:09:19 437.485
AISAT 06 Aug 00:07:14 00:10:39 21° 267° (W) 00:13:57 437.250
TISAT 1 06 Aug 00:09:29 00:13:20 38° 72° (ENE) 00:17:14 437.305
DX 1 06 Aug 00:12:06 00:13:38 11° 271° (W) 00:14:54 434.975-435.025
RS-15 06 Aug 00:14:01 00:22:33 23° 337° (NNW) 00:31:06 29.354- 29.394
YUBILEINY 06 Aug 00:16:56 00:25:38 85° 96° (E) 00:34:27 435.215
SPROUT 06 Aug 00:18:33 00:22:48 83° 78° (ENE) 00:27:06 437.525
DUCHIFAT 1 06 Aug 00:21:59 00:26:13 68° 285° (WNW) 00:30:26 145.980
SWISSCUBE 06 Aug 00:25:45 00:27:34 12° 63° (ENE) 00:29:38 437.505
NANOSAT C BR1 06 Aug 00:28:30 00:32:41 55° 286° (WNW) 00:36:50 145.865
QB50P1 06 Aug 00:29:31 00:33:42 53° 286° (WNW) 00:37:52 145.935-145.965
UNISAT 6 06 Aug 00:47:38 00:50:36 16° 294° (WNW) 00:53:25 437.425
ITUPSAT 1 06 Aug 00:47:50 00:51:04 19° 66° (ENE) 00:54:28 437.325
BUGSAT 1 06 Aug 01:05:55 01:09:37 33° 288° (WNW) 01:13:18 437.445
POLYITAN 1 06 Aug 01:16:37 01:19:29 17° 293° (WNW) 01:22:12 437.675
Cosmos 2504 06 Aug 01:23:51 01:29:25 26° 84° (E) 01:35:32 435.465 / 435.565
O/OREOS (USA 219) 06 Aug 01:29:48 01:33:55 34° 298° (WNW) 01:38:02 437.305
POPSAT HIP 1 06 Aug 01:32:22 01:34:11 12° 295° (WNW) 01:35:48 437.405
BEESAT 06 Aug 01:38:44 01:43:27 62° 74° (ENE) 01:48:13 436.000
ISS 06 Aug 01:40:20 01:43:30 48° 34° (NE) 01:46:40 145.825
TISAT 1 06 Aug 01:46:37 01:49:18 16° 268° (W) 01:51:49 437.305
SWISSCUBE 06 Aug 02:00:05 02:04:52 73° 257° (WSW) 02:09:42 437.505
STARS 06 Aug 02:04:10 02:04:25 10° 63° (ENE) 02:04:57 437.465
ITAMSAT 1 06 Aug 02:07:38 02:09:54 13° 89° (E) 02:12:29 435.822/435.867
Oscar 19 06 Aug 02:11:42 02:16:51 62° 101° (ESE) 02:21:59 437.125/150
JAS-2 06 Aug 02:15:23 02:17:17 11° 81° (E) 02:19:51 435.910
Gurwin Techsat 1B 06 Aug 02:15:56 02:19:41 20° 92° (E) 02:23:35 435.225
YUBILEINY 06 Aug 02:17:40 02:23:48 20° 298° (WNW) 02:29:31 435.215
JUGNU 06 Aug 02:19:41 02:20:59 11° 176° (S) 02:22:19 437.505
ITUPSAT 1 06 Aug 02:24:01 02:28:39 46° 261° (W) 02:33:17 437.325
RS-15 06 Aug 02:33:06 02:40:44 20° 13° (NNE) 02:48:48 29.354- 29.394
KKS-1 06 Aug 02:40:26 02:44:37 43° 72° (ENE) 02:48:50 437.445
Cosmos 2504 06 Aug 03:14:02 03:21:06 55° 283° (WNW) 03:28:42 435.465 / 435.565
ISS 06 Aug 03:17:33 03:19:41 16° 229° (SW) 03:21:45 145.825
BEESAT 06 Aug 03:19:29 03:21:47 13° 271° (W) 03:23:50 436.000
STARS 06 Aug 03:35:57 03:40:19 75° 258° (WSW) 03:44:42 437.465
HORYU 2 06 Aug 03:41:19 03:43:29 14° 90° (E) 03:45:53 437.375
ITAMSAT 1 06 Aug 03:44:50 03:50:00 68° 286° (WNW) 03:55:07 435.822/435.867
AO-7 06 Aug 03:51:51 03:58:39 28° 94° (E) 04:05:38 29.400- 29.500
Oscar 19 06 Aug 03:52:30 03:55:45 16° 296° (WNW) 03:58:48 437.125/150
Gurwin Techsat 1B 06 Aug 03:54:51 03:59:58 48° 288° (WNW) 04:05:02 435.225
JAS-2 06 Aug 03:56:01 04:03:53 69° 101° (E) 04:11:25 435.910
JUGNU 06 Aug 04:08:16 04:09:06 10° 186° (S) 04:09:53 437.505
MOZHAYETS 4 06 Aug 04:10:21 04:14:47 48° 73° (ENE) 04:19:18
KKS-1 06 Aug 04:18:43 04:21:31 16° 269° (W) 04:24:08 437.445
SRMSAT 06 Aug 04:21:49 04:23:14 11° 177° (S) 04:24:39 437.500
CUSAT 1 06 Aug 04:27:48 04:29:58 21° 285° (WNW) 04:32:04 437.405
RS-15 06 Aug 04:46:25 04:57:26 45° 44° (NE) 05:08:59 29.354- 29.394
DANDE 06 Aug 04:47:23 04:49:45 22° 283° (WNW) 04:51:53 436.750
GONETS M04 06 Aug 05:00:27 05:08:06 38° 87° (E) 05:15:55
HORYU 2 06 Aug 05:16:06 05:20:30 52° 287° (WNW) 05:24:51 437.375
JAS-2 06 Aug 05:42:00 05:48:17 26° 298° (WNW) 05:54:13 435.910
AO-7 06 Aug 05:43:48 05:51:59 61° 292° (WNW) 06:00:04 29.400- 29.500
MOZHAYETS 4 06 Aug 05:49:26 05:52:20 16° 270° (W) 05:55:03
STRAND 1 06 Aug 05:50:19 05:53:21 17° 64° (ENE) 05:56:35 437.568
CUTE-I 06 Aug 05:54:57 05:57:11 13° 88° (E) 05:59:44 437.470
BEESAT 2 06 Aug 06:14:18 06:16:29 14° 43° (NE) 06:18:47 435.950
CUBESAT XI-V 06 Aug 06:19:41 06:24:22 85° 257° (WSW) 06:29:03 437.345
PRISM 06 Aug 06:36:39 06:40:19 31° 71° (ENE) 06:44:03 437.425
Cubesat XI-IV 06 Aug 06:38:43 06:43:34 36° 97° (E) 06:48:27 437.490
Cosmos 2499 06 Aug 06:41:46 06:48:27 38° 87° (E) 06:55:45 435.465 / 435.565
BEESAT 3 06 Aug 06:44:52 06:48:33 33° 52° (NE) 06:52:11 437.485
SO-50 06 Aug 06:50:39 06:52:13 12° 108° (ESE) 06:54:06 436.795
